[[{"header":{"parameterUnit":"m.s-1","parameterCategory":1,"la1":30.2991,"la2":30.254,"lo1":-89.0895,"lo2":-89.0444,"dy":0.0017,"dx":0.0017,"nx":28,"ny":28,"refTime":"2025-09-12T03:00:00:Z","depth":0,"parameterNumber":2,"parameterNumberName":"U-component_of_WINDS"},"data":[0,0,0,0,0,0,0,0,0,0,0,0,0,0,0,0,0,0,0,0,0,0,0,0,0,0,0,0,0,0,0,0,0,0,0,0,0,0,0,0,0,0,0,0,0,0,0,0,0,0,0,0,0,0,0,0,0,0,-0.245,-0.245,0,-0.2518,-0.2518,-0.2519,-0.2541,-0.254,-0.254,-0.254,-0.2609,-0.2611,-0.2614,0,0,0,0,0,0,0,0,0,0,0,0,0,-0.2338,-0.234,-0.245,-0.245,-0.2451,-0.2517,-0.2518,-0.2519,-0.2541,-0.254,-0.254,-0.254,-0.2609,-0.2611,-0.2614,0,0,0,0,0,0,0,0,0,0,0,0,0,-0.2394,-0.2341,-0.2449,-0.247,-0.2472,-0.2517,-0.2518,-0.252,-0.2541,-0.254,-0.254,-0.2539,-0.2608,-0.2611,-0.2614,-0.2643,0,0,-0.2624,-0.2625,0,0,0,0,0,0,0,0,-0.2391,-0.2398,-0.2466,-0.2469,-0.2471,-0.252,-0.2505,-0.2561,-0.2541,-0.2515,-0.254,-0.2539,-0.258,-0.2586,-0.2599,-0.2647,-0.265,-0.2624,-0.2626,-0.2628,-0.2628,0,0,0,0,0,0,0,-0.2387,-0.2396,-0.2476,-0.2467,-0.247,-0.2476,-0.2483,-0.2515,-0.2549,-0.2517,-0.2519,-0.2527,-0.2581,-0.2596,-0.2601,-0.2651,-0.2624,-0.2627,-0.2629,-0.263,-0.2725,-0.2726,0,0,0,0,0,0,-0.238,-0.2392,-0.2474,-0.2479,-0.2429,-0.2478,-0.2486,-0.2505,-0.2549,-0.2555,-0.2527,-0.2527,-0.2591,-0.2597,-0.2604,-0.264,-0.2628,-0.2631,-0.2632,-0.2724,-0.2725,-0.2726,0,0,0,0,0,0,-0.2377,-0.2387,-0.2472,-0.2436,-0.2447,-0.248,-0.2501,-0.2507,-0.2521,-0.2556,-0.2562,-0.2536,-0.2591,-0.2599,-0.2633,-0.2643,-0.2632,-0.2635,-0.2724,-0.2725,-0.2726,-0.2715,0,0,0,0,0,0,-0.2374,-0.2386,-0.2398,-0.2436,-0.2449,-0.25,-0.2502,-0.2508,-0.2527,-0.2528,-0.2566,-0.2572,-0.2591,-0.2628,-0.2636,-0.2647,-0.2637,-0.2723,-0.2724,-0.2725,-0.2714,-0.2715,-0.2716,0,0,0,0,0,-0.237,-0.2392,-0.2398,-0.2408,-0.2464,-0.2501,-0.2508,-0.2529,-0.2528,-0.2539,-0.2562,-0.2571,-0.2641,-0.2632,-0.2641,-0.2653,-0.2723,-0.2724,-0.2725,-0.2714,-0.2715,-0.2716,0,0,0,0,0,0,-0.2354,-0.2397,-0.2405,-0.244,-0.2466,-0.2504,-0.252,-0.253,-0.2557,-0.2557,-0.2583,-0.2591,-0.2623,-0.2642,-0.2631,-0.2684,-0.2682,-0.2685,-0.267,-0.2671,-0.2672,-0.2667,-0.264,0,0,0,0,0,-0.2354,-0.2381,-0.2417,-0.2444,-0.2457,-0.2486,-0.2503,-0.2517,-0.2546,-0.2557,-0.2582,-0.2609,-0.2638,-0.2656,-0.2683,-0.2717,-0.2725,-0.273,-0.2731,-0.2731,-0.2733,-0.2752,-0.2754,-0.273,-0.273,-0.273,0,0,-0.2356,-0.2383,-0.2398,-0.2442,-0.2464,-0.249,-0.2496,-0.2523,-0.2543,-0.2561,-0.2595,-0.2614,-0.2646,-0.268,-0.2696,-0.2697,-0.2742,-0.2733,-0.2733,-0.2735,-0.2754,-0.2756,-0.2758,-0.2731,-0.2731,-0.2731,0,0,-0.2372,-0.2395,-0.242,-0.2442,-0.2476,-0.2495,-0.25,-0.2537,-0.255,-0.2585,-0.2599,-0.2622,-0.267,-0.2693,-0.271,-0.2734,-0.2743,-0.2742,-0.2746,-0.2764,-0.2766,-0.2767,-0.2775,-0.2778,-0.2745,-0.2745,-0.2745,0,-0.2369,-0.2409,-0.2431,-0.2458,-0.2477,-0.2495,-0.252,-0.2541,-0.2581,-0.2594,-0.2594,-0.2654,-0.2677,-0.2716,-0.2721,-0.2735,-0.2743,-0.2738,-0.2763,-0.2766,-0.2768,-0.2775,-0.2778,-0.2744,-0.2744,-0.2744,-0.2744,0,-0.2404,-0.2432,-0.2448,-0.2487,-0.2508,-0.2534,-0.2559,-0.2578,-0.259,-0.2609,-0.2643,-0.2671,-0.2705,-0.2715,-0.2727,-0.2756,-0.2755,-0.2759,-0.2758,-0.2769,-0.2777,-0.278,-0.2744,-0.2744,-0.2744,-0.2744,0,0,-0.2412,-0.2462,-0.2468,-0.2485,-0.2524,-0.2545,-0.2572,-0.2605,-0.262,-0.2647,-0.267,-0.271,-0.2714,-0.2734,-0.2748,-0.2764,-0.278,-0.2766,-0.2767,-0.2767,-0.2813,-0.2809,-0.2812,-0.2787,-0.2787,-0.2788,-0.281,0,-0.2432,-0.248,-0.2501,-0.254,-0.2565,-0.2582,-0.2605,-0.2631,-0.2649,-0.2674,-0.2694,-0.2721,-0.2725,-0.2737,-0.2753,-0.2775,-0.279,-0.2774,-0.2808,-0.2809,-0.2799,-0.2817,-0.2813,-0.2832,-0.2813,-0.2814,-0.2814,0,-0.2462,-0.249,-0.2531,-0.2566,-0.2577,-0.2598,-0.2629,-0.2652,-0.2681,-0.2694,-0.2716,-0.273,-0.2758,-0.2755,-0.2794,-0.2783,-0.2798,-0.2811,-0.2812,-0.2816,-0.2812,-0.282,-0.2839,-0.2842,-0.2819,-0.2819,-0.2818,0,-0.2463,-0.251,-0.2541,-0.2556,-0.2597,-0.2611,-0.2629,-0.2658,-0.2676,-0.2703,-0.2715,-0.2746,-0.2762,-0.2785,-0.2807,-0.2803,-0.2844,-0.2843,-0.2854,-0.2854,-0.2862,-0.2861,-0.2883,-0.2872,-0.2872,-0.2872,-0.2872,0,-0.2484,-0.2508,-0.2542,-0.2561,-0.2589,-0.2612,-0.2639,-0.2658,-0.2683,-0.2706,-0.2722,-0.2743,-0.2771,-0.2795,-0.2812,-0.2841,-0.2849,-0.2859,-0.2864,-0.2858,-0.2856,-0.2868,-0.2867,-0.2873,-0.2873,-0.2873,-0.2873,0,-0.2489,-0.2513,-0.2547,-0.2584,-0.2593,-0.2612,-0.2643,-0.2662,-0.2681,-0.2709,-0.2717,-0.2747,-0.2776,-0.28,-0.2838,-0.285,-0.288,-0.2885,-0.287,-0.2873,-0.2883,-0.2881,-0.2912,-0.2917,-0.2903,-0.2904,-0.2904,0,-0.25,-0.252,-0.2558,-0.2574,-0.2592,-0.2618,-0.2636,-0.266,-0.2678,-0.2713,-0.2727,-0.2758,-0.2784,-0.283,-0.2855,-0.2884,-0.289,-0.2898,-0.2894,-0.2887,-0.2889,-0.2888,-0.2889,-0.2899,-0.2899,-0.2899,-0.2899,0,-0.2518,-0.2528,-0.2555,-0.2585,-0.2606,-0.2631,-0.2656,-0.2669,-0.2697,-0.2717,-0.2747,-0.2767,-0.2806,-0.2836,-0.2868,-0.2886,-0.2897,-0.29,-0.2904,-0.2898,-0.2889,-0.2893,-0.2871,-0.2899,-0.2899,-0.2899,-0.2899,-0.2899,-0.2526,-0.2544,-0.2573,-0.2602,-0.2623,-0.2646,-0.2666,-0.2687,-0.2712,-0.2746,-0.2758,-0.2789,-0.2817,-0.2861,-0.288,-0.2904,-0.2905,-0.2911,-0.2913,-0.2914,-0.2913,-0.2885,-0.291,-0.291,-0.291,-0.291,-0.291,0,-0.2544,-0.2564,-0.259,-0.2624,-0.2647,-0.2655,-0.2683,-0.2701,-0.2728,-0.2754,-0.2778,-0.2813,-0.2842,-0.2869,-0.2899,-0.2913,-0.2919,-0.292,-0.2919,-0.2923,-0.291,-0.2903,-0.2915,-0.2915,-0.2915,-0.2915,-0.2915,-0.2915,-0.2556,-0.2586,-0.26,-0.2641,-0.2661,-0.2691,-0.2706,-0.2727,-0.2748,-0.2785,-0.2809,-0.2827,-0.2853,-0.2885,-0.2912,-0.2919,-0.2929,-0.2929,-0.2938,-0.2925,-0.2924,-0.2923,-0.2917,-0.2931,-0.2931,-0.2949,-0.2949,-0.2949]},{"header":{"parameterUnit":"m.s-1","parameterCategory":1,"la1":30.2991,"la2":30.254,"lo1":-89.0895,"lo2":-89.0444,"dy":0.0017,"dx":0.0017,"nx":28,"ny":28,"refTime":"2025-09-12T03:00:00:Z","depth":0,"parameterNumber":3,"parameterNumberName":"V-component_of_WINDS"},"data":[0,0,0,0,0,0,0,0,0,0,0,0,0,0,0,0,0,0,0,0,0,0,0,0,0,0,0,0,0,0,0,0,0,0,0,0,0,0,0,0,0,0,0,0,0,0,0,0,0,0,0,0,0,0,0,0,0,0,-2.8619,-2.862,0,-2.8715,-2.8716,-2.8717,-2.8701,-2.87,-2.8698,-2.8696,-2.879,-2.8794,-2.8798,0,0,0,0,0,0,0,0,0,0,0,0,0,-2.8421,-2.8424,-2.8619,-2.8621,-2.8622,-2.8715,-2.8716,-2.8717,-2.8702,-2.87,-2.8698,-2.8696,-2.8789,-2.8793,-2.8798,0,0,0,0,0,0,0,0,0,0,0,0,0,-2.851,-2.8426,-2.8619,-2.8625,-2.8627,-2.8714,-2.8716,-2.8717,-2.8702,-2.8699,-2.8697,-2.8695,-2.8787,-2.8793,-2.8799,-2.8885,0,0,-2.8817,-2.882,0,0,0,0,0,0,0,0,-2.8505,-2.8518,-2.8623,-2.8625,-2.8627,-2.8694,-2.868,-2.8774,-2.8703,-2.8673,-2.8696,-2.8694,-2.876,-2.8768,-2.8791,-2.8889,-2.8893,-2.8818,-2.8821,-2.8824,-2.8826,0,0,0,0,0,0,0,-2.8499,-2.8513,-2.8657,-2.8625,-2.8627,-2.8622,-2.8632,-2.8698,-2.8729,-2.8676,-2.8675,-2.8686,-2.876,-2.8785,-2.8793,-2.8895,-2.8818,-2.8823,-2.8827,-2.8829,-2.9069,-2.9072,0,0,0,0,0,0,-2.8492,-2.8508,-2.8654,-2.866,-2.8559,-2.8628,-2.8639,-2.8675,-2.8728,-2.8734,-2.8688,-2.8685,-2.8776,-2.8786,-2.8796,-2.8901,-2.8824,-2.883,-2.8833,-2.9067,-2.907,-2.9073,0,0,0,0,0,0,-2.8487,-2.8505,-2.865,-2.8584,-2.8602,-2.8634,-2.8674,-2.8678,-2.8703,-2.8738,-2.8743,-2.8709,-2.8774,-2.8788,-2.8864,-2.8904,-2.8832,-2.8838,-2.9063,-2.9068,-2.9071,-2.9111,0,0,0,0,0,0,-2.8482,-2.8503,-2.8537,-2.8585,-2.8606,-2.8717,-2.8676,-2.8681,-2.8714,-2.8711,-2.8758,-2.8764,-2.8774,-2.8855,-2.8869,-2.8911,-2.8843,-2.906,-2.9065,-2.907,-2.9106,-2.9116,-2.9124,0,0,0,0,0,-2.8475,-2.8544,-2.8539,-2.8557,-2.8649,-2.8719,-2.8731,-2.8742,-2.8717,-2.8751,-2.8774,-2.8762,-2.8897,-2.8863,-2.8879,-2.8923,-2.9057,-2.9064,-2.907,-2.9102,-2.9114,-2.9124,0,0,0,0,0,0,-2.8498,-2.855,-2.8545,-2.8632,-2.8672,-2.8717,-2.8759,-2.8755,-2.8801,-2.8796,-2.8807,-2.8818,-2.8895,-2.8916,-2.8877,-2.9009,-2.8974,-2.8983,-2.8993,-2.9004,-2.9013,-2.9006,-2.8848,0,0,0,0,0,-2.8514,-2.8568,-2.8609,-2.8682,-2.8702,-2.8728,-2.8758,-2.8764,-2.8805,-2.8821,-2.8849,-2.8888,-2.894,-2.8973,-2.9022,-2.9109,-2.9119,-2.9148,-2.9157,-2.9164,-2.9172,-2.922,-2.9234,-2.9093,-2.9093,-2.9093,0,0,-2.8545,-2.858,-2.8614,-2.8687,-2.8719,-2.8773,-2.8742,-2.8801,-2.8841,-2.883,-2.8903,-2.8926,-2.897,-2.9052,-2.9089,-2.9072,-2.9214,-2.9172,-2.9178,-2.9182,-2.9228,-2.9241,-2.9253,-2.9098,-2.9097,-2.9096,0,0,-2.8632,-2.8664,-2.8728,-2.8761,-2.8809,-2.8826,-2.8841,-2.8887,-2.8902,-2.8977,-2.8969,-2.9017,-2.9105,-2.9137,-2.9165,-2.9265,-2.9256,-2.9281,-2.9328,-2.9374,-2.9386,-2.9395,-2.9431,-2.9444,-2.9289,-2.9289,-2.9289,0,-2.8665,-2.8749,-2.8761,-2.8822,-2.8854,-2.8848,-2.8912,-2.8943,-2.9004,-2.9026,-2.9007,-2.9118,-2.9147,-2.9237,-2.9262,-2.9284,-2.9302,-2.9275,-2.9383,-2.9393,-2.9402,-2.9437,-2.945,-2.9292,-2.9291,-2.9291,-2.9291,0,-2.8787,-2.8845,-2.8891,-2.8952,-2.899,-2.9052,-2.9073,-2.9109,-2.9112,-2.913,-2.9206,-2.9241,-2.9298,-2.932,-2.9322,-2.941,-2.9398,-2.9381,-2.9345,-2.9418,-2.945,-2.9464,-2.9295,-2.9294,-2.9294,-2.9293,0,0,-2.889,-2.8959,-2.8975,-2.9003,-2.9057,-2.9101,-2.9163,-2.922,-2.9251,-2.9293,-2.9345,-2.942,-2.9405,-2.9437,-2.9443,-2.9484,-2.9561,-2.9462,-2.9463,-2.9479,-2.966,-2.9672,-2.9687,-2.9555,-2.9558,-2.956,-2.9656,0,-2.8981,-2.9092,-2.9105,-2.9203,-2.9257,-2.9252,-2.9306,-2.9344,-2.9363,-2.9411,-2.9431,-2.9485,-2.946,-2.948,-2.952,-2.9543,-2.9597,-2.9536,-2.9603,-2.9605,-2.9592,-2.9704,-2.9717,-2.9806,-2.9669,-2.9671,-2.9672,0,-2.9102,-2.915,-2.9254,-2.9301,-2.9324,-2.9372,-2.9426,-2.9472,-2.9515,-2.9526,-2.9562,-2.9563,-2.9626,-2.9588,-2.9674,-2.9632,-2.9661,-2.9676,-2.968,-2.9686,-2.9643,-2.9713,-2.9835,-2.9848,-2.9692,-2.9691,-2.9689,0,-2.9167,-2.9257,-2.9331,-2.9355,-2.9412,-2.9446,-2.9471,-2.9512,-2.9545,-2.9592,-2.9614,-2.9666,-2.9695,-2.9735,-2.975,-2.9721,-2.9836,-2.9799,-2.9846,-2.9846,-2.987,-2.9868,-2.9998,-2.9888,-2.9888,-2.9888,-2.9888,0,-2.9267,-2.9331,-2.9361,-2.9407,-2.9478,-2.9492,-2.9562,-2.9585,-2.9622,-2.9671,-2.967,-2.9716,-2.9733,-2.9781,-2.9793,-2.9863,-2.9876,-2.9886,-2.9888,-2.9886,-2.9885,-2.9904,-2.9898,-2.9891,-2.9891,-2.989,-2.9889,0,-2.9351,-2.9374,-2.9455,-2.9502,-2.9516,-2.9566,-2.9606,-2.965,-2.9669,-2.9731,-2.9746,-2.9776,-2.9833,-2.9852,-2.9921,-2.9929,-3.001,-3.0007,-2.9996,-2.9997,-3.0042,-3.0038,-3.0189,-3.0209,-3.0087,-3.0088,-3.0089,0,-2.9414,-2.9463,-2.9516,-2.955,-2.9577,-2.9631,-2.9666,-2.9682,-2.9718,-2.9771,-2.9808,-2.9865,-2.9912,-3.0003,-3.003,-3.0083,-3.0081,-3.013,-3.0088,-3.0085,-3.0081,-3.0078,-3.0083,-3.0138,-3.0139,-3.014,-3.0141,0,-2.9522,-2.9532,-2.9582,-2.9638,-2.968,-2.9723,-2.9766,-2.9793,-2.9815,-2.9856,-2.9915,-2.9951,-3.0023,-3.0079,-3.0133,-3.0157,-3.0153,-3.0154,-3.0168,-3.0166,-3.0157,-3.0162,-3.0017,-3.015,-3.0149,-3.0148,-3.0148,-3.0148,-2.9597,-2.9641,-2.9686,-2.9743,-2.9777,-2.9817,-2.986,-2.9885,-2.9936,-2.9996,-3.0002,-3.0066,-3.0108,-3.018,-3.0208,-3.0257,-3.0243,-3.0263,-3.0268,-3.0272,-3.0276,-3.015,-3.0267,-3.0267,-3.0266,-3.0266,-3.0266,0,-2.9706,-2.9735,-2.9787,-2.9847,-2.9892,-2.9886,-2.9932,-2.997,-3.0026,-3.0067,-3.0113,-3.0181,-3.0237,-3.0268,-3.0323,-3.0357,-3.0356,-3.0371,-3.0368,-3.0374,-3.0285,-3.0268,-3.037,-3.037,-3.037,-3.037,-3.037,-3.037,-2.9767,-2.9841,-2.9856,-2.9946,-2.9975,-3.0039,-3.0066,-3.0102,-3.0135,-3.0212,-3.0258,-3.0279,-3.0316,-3.0374,-3.0424,-3.0432,-3.0452,-3.0468,-3.0474,-3.0391,-3.038,-3.037,-3.0354,-3.0472,-3.0472,-3.0559,-3.056,-3.056]}]]